Location: Eschertshofen
(49.3064°N, 11.5756°E)
Time: 04:00:09
(UTC+00:00)

Resurs 01 Rocket - Pass Details

Date: 18 September 2020
Orbit: 633 x 645 km, 98.0° (Epoch: 18 October)

Event Time Altitude Azimuth Distance (km) Brightness Sun altitude
Exits shadow 20:56:50 19° 266° (W) 1,539 3.9 -32.0°
Maximum altitude 20:57:00 19° 269° (W) 1,538 3.9 -32.0°
Drops below altitude 10° 21:00:11 10° 315° (NW) 2,052 5.1 -32.3°
Sets 21:03:00 0° 333° (NNW) 2,966 6.1 -32.6°
